AirNav   Air Wisconsin Up To $57,000 Bonus
 
 637 users online  

FL76 Heli-Partners I-Drive Heliport
Orlando, Florida, USA

GOING TO ORLANDO?


FAA INFORMATION EFFECTIVE 02 JANUARY 2020

Location

FAA Identifier: FL76
Lat/Long: 28-23-04.0000N 081-29-07.0000W
28-23.066667N 081-29.116667W
28.3844444,-81.4852778
(estimated)
Elevation: 112 ft. / 34 m (estimated)
From city: 10 miles E of ORLANDO, FL
Time zone: UTC -5 (UTC -4 during Daylight Saving Time)
Zip code: 32821

Heliport Operations

Heliport use: Private use. Permission required prior to landing
Activation date: 04/2014
Control tower: no
ARTCC: JACKSONVILLE CENTER
FSS: SAINT PETERSBURG FLIGHT SERVICE STATION
Attendance: 0900-SS
Wind indicator: yes
Segmented circle: no

Heliport Communications

WX AWOS-3PT at ISM (6 nm SE): 128.775 (407-847-0533)
WX ASOS at MCO (10 nm E): PHONE 407-855-5235
WX ASOS at ORL (13 nm NE): PHONE 407-658-6753

Nearby radio navigation aids

VOR radial/distance  VOR name  Freq  Var
ORLr220/12.4ORLANDO VORTAC112.2000E
LALr048/36.8LAKELAND VORTAC116.0001E

Heliport Services

Runway Information

Helipad H1

Dimensions: 25 x 25 ft. / 8 x 8 m
Surface: concrete
Traffic pattern: leftleft

Heliport Ownership and Management from official FAA records

Ownership: Privately-owned
Owner: RICK VIOLETTE
12651 INTERNATIONAL DRIVE
ORLANDO, FL 32821
Phone 407-239-8687
Manager: RICK VIOLETTE
12651 INTERNATIONAL DRIVE
ORLANDO, FL 32821
Phone 407-239-8687

Heliport Operational Statistics

Aircraft based on the field: 4
Single engine airplanes: 1
Jet airplanes: 1
Helicopters: 2
    

Additional Remarks

FOR CD CTC ORLANDO APCH AT 407-852-7553.

Instrument Procedures

There are no published instrument procedures at FL76.

Some nearby airports with instrument procedures:

KISM - Kissimmee Gateway Airport (6 nm SE)
KMCO - Orlando International Airport (10 nm E)
KORL - Executive Airport (13 nm NE)
X04 - Orlando Apopka Airport (20 nm N)
KGIF - Winter Haven Regional Airport (24 nm SW)
 
Loc | Ops | Rwys | IFR | FBO | Links
Com | Nav | Svcs | Stats | Notes


 
Aerial photo
No photo
 
Airport distance calculator
Flying to Heli-Partners I-Drive Heliport? Find the distance to fly.

From to FL76

Sunrise and sunset
Times for 18-Jan-2020
 Local
(UTC-5)
 Zulu
(UTC)
Morning civil twilight06:5511:55
Sunrise07:2012:20
Sunset17:5322:53
Evening civil twilight18:1823:18

Current date and time
Zulu (UTC)  18-Jan-2020 10:49:21
Local (UTC-5)  18-Jan-2020 05:49:21
 
METAR
KISM 
7nm SE 
180956Z AUTO 08004KT 10SM CLR 16/13 A3033 RMK AO2 SLP272 T01610128 PNO $
KMCO 
8nm E 
180953Z 06007KT 10SM FEW042 BKN250 17/12 A3033 RMK AO2 SLP268 T01720117
KORL 
13nm NE 
180953Z AUTO 07006KT 10SM FEW043 17/12 A3033 RMK AO2 SLP275 T01670117
TAF
KISM 
7nm SE 
180540Z 1806/1906 09009KT P6SM SCT045 BKN250 FM181500 12010KT P6SM SCT040 FM190000 15006KT P6SM FEW050
KMCO 
8nm E 
180900Z 1809/1912 07007KT P6SM FEW040 BKN250 FM181500 13012KT P6SM SCT040 FM190000 15005KT P6SM FEW050
NOTAMs
Click for the latest NOTAMs
NOTAMs are issued by the DoD/FAA and will open in a separate window not controlled by AirNav.

 

 
 

Would you like to see your business listed on this page?

 If your business provides an interesting product or service to pilots, flight crews, aircraft, or users of the Heli-Partners I-Drive Heliport, you should consider listing it here.  To start the listing process, click on the button below
 
Add a business
 

Other Pages about Heli-Partners I-Drive Heliport

Update a link
 
Copyright © AirNav, LLC. All rights reserved. Privacy Policy  Contact